Theta_e
311 309 307 306 307 307 307 307 306 306 309 310 311 312 307 306 307 308 310 310 311 311 311 312 312 316 314 312 311 310 310 310 312 312 313 314 317 321 325 328 328 328 327
309 307 306 303 304 304 305 306 304 303 305 307 310 312 308 308 305 306 308 308 306 307 308 308 310 314 313 310 308 307 306 306 308 309 310 310 311 314 316 322 327 327 327
307 306 304 300 302 302 302 302 300 299 303 305 307 310 307 304 302 302 305 304 302 301 304 308 309 309 309 308 306 305 303 303 305 305 306 307 308 309 309 311 318 325 326
306 305 303 297 296 299 299 298 296 298 302 305 304 301 300 299 298 297 297 296 295 296 297 305 306 305 304 305 303 302 301 301 302 303 303 304 304 305 306 306 309 319 324
303 303 300 296 294 295 296 296 296 302 303 300 300 297 297 296 295 295 294 294 294 294 295 300 302 300 300 300 300 299 299 299 300 301 301 301 301 302 303 305 306 308 314
302 301 299 295 294 294 295 295 297 300 298 297 295 295 294 294 294 293 293 293 293 294 294 295 295 297 297 297 297 297 297 297 298 298 299 299 299 300 301 302 304 305 306
298 298 297 294 293 293 294 295 295 298 297 296 295 294 293 293 293 293 292 292 292 292 292 292 293 293 292 292 294 295 295 295 296 297 297 297 298 298 299 300 301 302 303
296 295 295 294 293 293 294 294 294 294 294 296 297 297 294 294 292 292 291 291 290 291 291 290 290 290 290 289 290 293 292 292 294 295 296 296 296 297 297 298 299 300 300
294 294 294 293 293 293 293 293 293 293 294 293 293 294 291 292 292 292 291 290 289 290 290 289 289 289 289 288 288 292 291 290 292 293 294 295 295 295 296 297 297 298 298
295 294 293 293 292 293 294 293 293 292 293 293 293 292 292 292 289 289 291 290 289 288 289 289 288 288 288 288 288 289 289 287 289 291 293 293 294 295 295 295 295 296 297
297 295 293 293 292 293 294 293 292 292 292 292 292 292 292 291 291 290 288 289 288 288 288 288 288 287 287 287 287 288 287 285 288 290 291 292 293 293 293 294 294 295 295
298 296 294 293 292 292 294 293 293 292 291 291 291 291 291 291 290 289 288 288 288 287 288 287 287 286 287 286 286 287 285 284 286 289 290 291 292 292 292 293 293 294 294
298 297 294 293 292 291 293 293 293 292 291 291 291 290 290 290 289 289 288 288 287 287 287 287 287 286 285 285 285 286 284 283 285 288 289 290 290 291 291 292 292 292 293
300 297 294 293 292 291 291 293 292 291 291 291 291 290 290 289 289 288 288 287 286 286 286 286 287 285 284 283 283 283 282 282 284 286 288 288 287 289 290 290 290 291 291
299 297 294 292 292 291 291 292 292 291 290 290 290 290 289 289 288 288 287 287 287 285 284 286 285 283 282 282 282 282 281 282 284 284 287 286 286 287 288 288 289 289 290
298 297 293 292 292 292 291 291 291 291 290 290 290 289 289 289 288 287 287 286 286 285 283 284 283 283 283 283 282 281 281 281 283 284 286 284 284 285 286 286 287 288 288
299 296 293 292 292 291 291 290 290 290 289 289 289 289 289 288 288 287 286 286 286 285 283 283 283 283 283 282 281 280 281 281 282 284 284 284 282 283 284 285 285 285 286
298 295 293 292 291 291 290 290 289 289 289 288 288 288 288 287 287 287 286 286 285 284 283 282 282 282 282 281 279 279 280 281 283 283 282 281 282 284 284 284 283 284 285
297 295 293 292 291 291 290 290 289 289 288 288 285 285 286 286 286 286 287 286 285 284 283 282 281 281 281 279 278 279 279 280 281 280 280 280 281 283 284 284 284 282 283
298 295 293 292 291 290 290 290 289 288 288 286 285 283 283 285 286 286 286 285 284 283 283 282 281 280 279 278 278 278 278 278 279 279 279 280 281 282 282 283 282 282 283
297 297 293 291 290 290 290 289 288 288 287 286 286 283 283 285 286 285 285 284 284 283 282 281 279 278 278 278 278 278 278 278 278 279 279 280 280 281 282 282 281 281 283
297 295 293 291 290 290 290 289 289 288 287 286 286 284 284 285 285 284 284 283 282 281 280 279 278 277 277 278 278 278 278 278 278 278 279 279 280 282 281 279 280 281 282
298 294 292 291 290 290 289 289 288 288 287 286 285 284 283 284 284 283 282 282 281 281 280 279 278 278 278 278 278 278 278 278 278 278 279 279 280 278 278 278 279 281 281
296 295 293 291 290 290 289 288 288 288 287 286 285 284 282 283 283 282 282 281 281 281 280 278 278 278 279 278 278 278 277 277 277 276 277 278 277 277 278 277 278 279 280
297 295 293 292 290 290 289 289 288 287 287 286 285 284 282 282 282 281 281 281 281 280 279 278 279 279 279 279 278 277 276 276 275 275 275 276 277 276 277 277 277 278 280
297 295 293 292 291 290 289 289 288 288 287 285 284 283 282 281 280 280 281 280 280 280 278 279 279 279 278 278 278 277 277 276 275 275 276 275 275 276 276 276 277 277 278
Wind_Speed
16 14 16 15 14 12 13 14 15 17 19 18 17 19 24 26 24 24 25 22 23 21 21 19 19 18 21 23 24 25 26 26 26 27 28 28 25 19 5 13 12 17 15
13 14 16 16 13 12 13 13 15 14 16 16 18 21 23 23 24 24 25 22 19 19 19 18 18 19 21 22 22 23 25 25 24 24 25 25 26 27 28 14 6 5 13
13 14 16 15 13 11 11 12 13 12 13 16 21 24 22 24 24 24 24 21 19 18 19 17 15 16 18 19 19 21 23 23 22 23 23 24 25 26 27 29 24 9 2
11 12 13 15 13 11 13 15 15 14 17 25 31 29 29 27 25 25 24 22 21 20 19 18 17 17 18 16 16 19 22 22 22 22 23 24 24 24 25 26 28 18 8
11 10 13 13 12 13 15 17 18 19 27 30 30 28 26 25 24 23 22 20 19 18 17 16 17 17 17 17 17 19 20 20 21 21 22 23 23 23 24 24 25 27 22
7 8 10 11 10 12 15 16 20 22 27 28 31 29 27 24 23 22 21 19 19 19 19 16 13 15 17 18 18 18 18 19 19 20 21 22 22 23 23 23 23 23 24
4 5 7 9 10 11 13 14 18 22 23 25 27 23 21 20 19 18 16 18 19 19 18 16 14 13 15 16 18 18 18 18 18 19 20 21 20 21 21 22 22 22 22
4 6 7 8 9 9 10 11 10 15 14 6 5 4 2 3 14 16 15 16 17 17 17 16 15 14 15 17 18 17 19 19 17 18 19 20 19 18 19 20 20 20 20
4 4 5 6 7 7 8 9 9 8 8 12 8 3 2 3 1 3 13 16 15 14 14 14 14 14 15 16 16 17 20 19 17 17 17 18 17 17 17 18 18 19 20
5 5 4 4 6 6 7 8 7 8 6 6 8 11 10 4 2 1 1 10 10 13 11 13 12 13 15 16 16 17 18 19 18 18 17 17 16 16 16 17 16 17 17
6 4 4 4 5 6 6 6 6 6 6 7 6 3 6 7 8 3 1 7 7 10 9 10 11 13 15 15 17 18 19 20 18 18 17 16 16 16 16 16 17 16 16
9 7 5 4 4 4 6 6 6 5 6 6 6 6 5 4 4 4 2 2 6 6 3 5 9 13 14 16 17 19 20 19 17 18 17 17 16 16 16 16 17 17 16
14 11 8 7 6 5 5 6 5 5 4 4 5 6 5 5 3 3 2 2 1 3 3 3 7 12 16 18 20 19 21 19 16 16 16 16 18 18 17 17 17 17 17
14 12 10 8 7 6 6 7 6 4 3 4 5 3 3 3 2 2 1 3 2 2 3 3 5 11 18 19 20 19 22 17 14 14 15 17 18 18 19 20 18 18 17
16 14 11 10 10 8 7 8 8 5 4 4 5 2 3 2 1 2 0 1 2 2 2 2 7 14 18 19 21 22 19 15 14 13 13 18 19 19 19 19 20 20 19
19 15 14 13 12 11 9 9 9 8 7 5 4 4 4 4 2 2 3 2 3 3 2 5 17 16 18 21 23 22 19 15 13 13 14 18 20 20 19 20 20 20 21
23 19 17 15 15 13 11 9 9 9 9 7 6 6 5 6 5 4 4 6 6 6 8 12 15 17 20 24 24 22 19 16 15 13 15 19 20 19 18 18 20 21 22
24 20 17 17 16 15 12 10 10 11 10 9 7 7 7 7 8 7 7 9 9 9 10 14 18 19 23 23 24 23 20 18 14 14 20 20 18 17 17 19 21 22 23
25 22 20 20 18 17 15 13 12 12 11 9 8 8 9 9 9 9 9 10 10 8 9 11 14 20 24 24 25 20 22 17 19 19 23 21 17 16 17 19 21 24 23
25 23 21 20 19 18 17 15 14 14 12 10 7 8 9 9 8 7 8 9 8 8 8 11 15 19 19 23 18 22 22 25 25 26 22 18 17 20 20 20 23 24 23
27 23 23 21 19 19 19 17 16 15 14 11 9 8 9 9 8 7 7 6 6 7 9 13 14 17 17 18 17 20 22 24 26 19 18 25 26 26 24 23 29 29 25
30 27 27 24 22 22 20 18 16 16 16 13 10 8 9 8 9 7 6 6 7 7 9 12 15 13 15 16 19 20 22 19 12 13 28 33 25 23 22 33 36 29 28
31 30 28 26 24 23 21 19 18 18 17 14 11 9 11 10 11 10 9 8 7 8 11 14 14 11 14 15 18 19 17 18 19 27 25 26 20 28 34 33 30 27 29
33 32 31 28 25 24 21 20 20 19 18 16 13 11 11 12 12 12 11 10 9 11 12 12 11 11 12 15 15 16 18 20 21 25 22 18 27 29 27 33 33 30 26
36 35 32 28 25 24 21 20 21 21 21 18 14 12 12 13 12 12 11 11 12 14 14 10 10 11 13 13 14 14 17 17 17 20 25 20 17 28 29 32 27 25 23
36 34 32 29 26 24 22 22 22 23 23 20 17 14 13 12 12 12 13 13 15 16 14 12 12 13 13 14 15 15 17 18 16 12 5 18 23 20 9 19 17 32 28
Wind_Direction
72 68 68 63 60 56 66 68 69 80 85 96 98 110 104 100 100 99 95 89 80 68 64 60 54 58 63 58 49 44 41 37 37 37 37 37 40 38 295 246 230 222 218
75 75 66 60 61 58 66 65 63 76 83 86 102 120 115 103 100 103 104 98 84 73 64 59 61 59 63 57 47 41 37 35 37 37 35 34 34 38 40 37 238 247 209
75 68 65 67 70 70 71 71 67 81 93 95 108 118 114 111 102 98 96 92 86 78 69 67 70 59 55 52 42 35 32 32 36 34 34 34 32 31 31 34 52 78 204
71 73 71 69 68 71 67 64 64 76 98 111 112 109 108 104 98 92 88 82 75 71 72 72 74 66 58 54 41 33 29 31 31 33 35 33 30 27 25 26 29 68 93
69 68 68 70 64 66 64 58 65 94 110 111 112 107 105 101 97 92 84 77 70 67 72 78 75 67 59 53 43 35 29 28 30 32 31 29 29 28 27 25 26 35 54
64 71 74 70 65 65 68 69 81 107 111 110 106 98 95 94 91 86 82 77 71 73 81 83 77 69 59 50 40 33 30 27 25 26 27 26 28 29 29 30 28 28 29
77 91 83 72 63 59 64 75 92 111 109 110 103 92 86 85 84 78 72 67 66 73 72 71 75 59 51 43 37 29 27 23 24 24 24 22 24 26 27 29 30 30 30
102 102 91 81 69 65 70 80 95 102 87 145 165 135 148 93 75 72 64 59 60 69 68 66 65 57 43 30 29 30 21 19 20 20 20 20 20 21 23 25 27 28 27
114 114 100 92 88 81 77 71 80 103 117 72 83 155 120 198 159 119 64 53 52 61 68 64 57 48 36 23 26 23 15 14 15 12 11 13 15 16 17 20 20 20 19
147 129 117 112 104 102 97 86 82 84 114 117 84 75 82 94 139 352 110 39 47 44 59 56 48 38 27 22 15 14 12 3 1 2 4 5 8 9 9 10 10 11 12
162 148 158 143 125 123 118 104 92 84 85 83 88 114 85 75 63 92 321 346 16 28 48 45 42 32 24 12 15 8 2 359 1 1 360 1 2 3 2 3 3 3 4
180 178 172 163 157 149 141 128 101 93 95 96 92 80 80 71 54 64 76 327 331 355 29 34 25 21 13 4 1 357 354 351 354 357 356 357 357 354 354 354 353 353 353
196 193 192 184 182 167 162 155 134 118 116 112 110 99 93 92 82 44 11 337 305 308 332 349 19 357 356 352 351 350 344 343 345 347 352 353 349 348 348 347 347 347 346
210 202 197 189 186 179 181 176 167 147 131 131 142 122 110 119 84 63 70 349 333 314 284 295 329 332 346 344 346 342 339 337 337 340 342 343 346 344 341 340 342 342 343
213 212 205 197 191 189 187 183 185 177 165 161 166 165 166 167 136 126 342 272 219 306 296 299 328 329 343 348 347 340 340 335 331 331 332 331 335 336 335 335 334 335 335
215 218 213 206 198 195 193 189 188 191 190 187 197 204 212 216 212 215 284 239 195 230 252 286 316 329 337 342 343 341 340 332 326 329 324 327 328 329 327 325 328 329 328
216 213 216 211 206 203 201 200 198 194 196 201 205 219 237 226 228 252 244 222 232 258 268 298 314 326 330 337 339 341 340 336 328 322 323 326 324 322 322 328 326 323 320
216 212 210 216 211 211 210 209 207 202 209 209 219 228 225 237 241 251 247 239 247 274 270 290 310 321 326 333 336 337 340 335 324 318 321 320 321 316 313 322 324 324 322
210 212 212 213 215 216 215 215 219 216 214 218 228 238 241 242 244 253 251 241 264 268 273 284 302 316 323 332 334 337 338 339 319 320 323 322 320 320 311 313 320 322 321
212 214 219 219 218 219 218 223 223 217 217 221 242 254 247 240 246 242 240 250 253 262 279 293 306 316 320 330 334 335 332 332 327 325 327 328 326 316 312 312 319 318 315
212 222 218 216 218 220 222 226 224 221 220 229 249 258 242 239 252 244 235 243 245 271 290 302 311 312 317 332 334 331 325 326 325 328 333 326 324 318 316 315 318 318 314
217 214 216 216 217 221 224 230 228 225 224 231 246 254 229 238 236 240 259 264 274 279 295 305 310 309 318 327 330 325 317 319 326 330 327 318 323 318 313 312 311 306 306
219 215 217 217 221 225 225 224 228 230 224 230 239 241 235 237 228 245 258 264 269 288 302 306 298 306 316 330 326 315 311 303 298 308 313 300 297 309 310 309 306 302 302
219 219 219 220 223 225 225 225 224 229 231 233 237 243 237 232 238 251 257 259 275 292 306 302 284 299 310 319 318 316 316 316 312 310 314 292 303 304 312 309 305 301 302
223 223 223 224 224 228 226 226 226 227 234 237 237 240 240 242 250 254 247 266 283 291 306 289 273 280 291 297 305 308 314 313 306 305 313 300 310 306 302 297 307 309 299
229 226 226 226 230 233 229 229 228 229 233 237 237 236 240 251 253 240 246 265 279 292 300 288 291 296 300 301 304 309 309 299 300 307 313 312 307 316 300 297 303 307 308